Weather History for Billings, MT

Change the Weather History Date:

Saturday, October 13, 2012

  Actual Average Record
Temperature  
Mean Temperature 57 °F 49 °F  
Max Temperature 66 °F 61 °F 81 °F (1958)
Min Temperature 48 °F 38 °F 20 °F (1969)
Degree Days  
Heating Degree Days 8 16  
Month to date heating degree days 222 178  
Since 1 July heating degree days 287 407  
Cooling Degree Days 0 0  
Month to date cooling degree days 3 0  
Year to date cooling degree days 958 633  
Growing Degree Days 7 (Base 50)    
Moisture  
Dew Point 35 °F    
Average Humidity 44    
Maximum Humidity 61    
Minimum Humidity 27    
Precipitation  
Precipitation T in 0.04 in 0.70 in (1942)
Month to date precipitation 0.73 0.57  
Year to date precipitation 5.81 11.92  
Snow  
Snow 0.00 in 0.10 in 1.00 in (1952)
Month to date snowfall 3.4 1.5  
Since 1 July snowfall 3.4 2.6  
Since 1 September snowfall 3.4 2.6  
Snow Depth 0.00 in    
Sea Level Pressure  
Sea Level Pressure 29.89 in    
Wind  
Wind Speed 13 mph (West)    
Max Wind Speed 31 mph    
Max Gust Speed 37 mph    
Visibility 10 miles    
Events Rain    
T = Trace of Precipitation, MM = Missing Value Source: NWS Daily Summary

Daily Weather History Graph

Daily Weather History Graph

Search for Another Location

Airport:

Trip Planner

Search our weather history database for the weather conditions in past years. The results will help you decide how hot, cold, wet, or windy it might be!

Date:

Astronomy

Oct. 13, 2012 Rise Set
Actual Time 7:28 AM MDT 6:30 PM MDT
Civil Twilight 6:58 AM MDT 7:00 PM MDT
Nautical Twilight 6:24 AM MDT 7:35 PM MDT
Astronomical Twilight 5:49 AM MDT 8:09 PM MDT
Moon 5:17 AM MDT (10/13) 5:19 PM MDT (10/13)
Length of Visible Light 12h 01m
Length of Day
11h 01m
Waning Crescent, 4% of the Moon is Illuminated
Oct 13
Waning Crescent
Oct 15
New
Oct 21
First Quarter
Oct 29
Full
Nov 6
Last Quarter

Hourly Weather History & Observations

Time (MDT) Temp. Dew Point Humidity Pressure Visibility Wind Dir Wind Speed Gust Speed Precip Events Conditions
12:53 AM 57.0 °F 37.0 °F 47% 29.72 in 10.0 mi WSW 11.5 mph - N/A   Clear
1:53 AM 55.0 °F 34.0 °F 45% 29.73 in 10.0 mi SW 8.1 mph - N/A   Clear
2:53 AM 55.0 °F 36.0 °F 49% 29.74 in 10.0 mi WSW 11.5 mph - N/A   Clear
3:53 AM 52.0 °F 35.1 °F 53% 29.76 in 10.0 mi Variable 3.5 mph - N/A   Partly Cloudy
4:53 AM 60.1 °F 26.1 °F 27% 29.77 in 10.0 mi NNW 11.5 mph - N/A   Partly Cloudy
5:53 AM 48.0 °F 35.1 °F 61% 29.80 in 10.0 mi Variable 4.6 mph - N/A   Partly Cloudy
6:53 AM 55.9 °F 28.9 °F 36% 29.82 in 10.0 mi NW 10.4 mph - N/A   Mostly Cloudy
7:53 AM 52.0 °F 33.1 °F 49% 29.85 in 10.0 mi WNW 4.6 mph - N/A   Mostly Cloudy
8:53 AM 50.0 °F 35.1 °F 57% 29.86 in 10.0 mi SW 11.5 mph - N/A   Mostly Cloudy
9:53 AM 48.9 °F 37.0 °F 64% 29.91 in 10.0 mi SW 11.5 mph - 0.00 in Rain Light Rain
10:53 AM 57.0 °F 33.1 °F 40% 29.90 in 10.0 mi WSW 9.2 mph - 0.00 in Rain Light Rain
11:53 AM 59.0 °F 36.0 °F 42% 29.92 in 10.0 mi NW 11.5 mph - 0.00 in   Mostly Cloudy
12:53 PM 55.9 °F 43.0 °F 62% 29.96 in 10.0 mi NW 23.0 mph 36.8 mph 0.00 in Rain Light Rain
1:53 PM 59.0 °F 41.0 °F 51% 29.94 in 10.0 mi NW 17.3 mph - 0.00 in   Mostly Cloudy
2:53 PM 64.0 °F 39.9 °F 41% 29.91 in 10.0 mi West 12.7 mph - N/A   Partly Cloudy
3:53 PM 64.0 °F 37.9 °F 38% 29.94 in 10.0 mi NW 19.6 mph 24.2 mph N/A   Mostly Cloudy
4:53 PM 64.9 °F 37.0 °F 36% 29.93 in 10.0 mi West 18.4 mph 29.9 mph N/A   Scattered Clouds
6:53 PM 59.0 °F 34.0 °F 39% 29.99 in 10.0 mi WNW 12.7 mph - N/A   Partly Cloudy
7:53 PM 57.9 °F 34.0 °F 41% 30.01 in 10.0 mi WNW 20.7 mph 28.8 mph N/A   Clear
8:53 PM 57.0 °F 34.0 °F 42% 30.05 in 10.0 mi WNW 17.3 mph - N/A   Clear
10:53 PM 53.6 °F 35.6 °F 51% 30.10 in 10.0 mi WNW 11.5 mph - N/A   Clear
11:53 PM 50.0 °F 35.1 °F 57% 30.07 in 10.0 mi WNW 9.2 mph - N/A   Clear